Погода в Алмазаре

Узбекистан     40°58′04″N   68°51′13″E
темп.,
°C
ветер,
м/с
пор.,
м/с
влажн.,
%
обл.,
%
осадки,
мм/ч
давл.,
гПа
погр.,
м
19 января, ср
ср1923:00+9юз1180100 0.0 101112
02:00+8ссз0184100 0.3 100925
05:00+7ю3584100 1.1 1011126
08:00+8зюз10186693 2.2 1014970
11:00+7з9175868 2.2 10181405
14:00+8зюз8154585 0.0 10201549
17:00+7зюз694721 0.0 1021592
20:00+3с467217 0.0 1025356
20 января, чт
чт2023:00+3с347286 0.0 1026369
02:00+1ссв227837 0.0 102643
05:00+1с22816 0.0 102637
08:000ссв22835 0.0 102628
11:00+5св23610 0.0 1024399
14:00+8ссв22430 0.0 1021681
17:00+7ссв23420 0.0 101837
20:00+4ссв33600 0.0 101737
21 января, пт
пт2123:00+4всв33500 0.0 101422
02:00+3всв22470 0.0 101118
05:00+2ссв22440 0.0 101010
08:00+1з22380 0.0 101011
11:00+6вюв22280 0.0 1010223
14:00+10вюв24275 0.0 1008515
17:00+9всв11335 0.0 100911
20:00+8ююв3337100 0.0 101220
22 января, сб
сб2223:00+6ю475099 0.0 101496
02:00+5сз2269100 0.0 101721
05:00+4сз2471100 0.0 1020106
08:00+3с2571100 0.0 1023230
11:00+2ссз2293100 0.2 1026320
14:00+2ссз2298100 0.9 1026188
17:00+2с2396100 1.4 1026199
20:00+2ссв2291100 0.0 1027252
23 января, вс
вс2323:00+2св1288100 0.0 1027134
02:00+1ссв1186100 0.0 102720
05:00+2с2279100 0.0 1026103
08:00+2с127396 0.0 1027140
11:00+4с235963 0.0 1027604
14:00+6с225247 0.0 1025991
17:00+5с345639 0.0 1025422
20:00+3с356694 0.0 1026158